Location: Tyler Bend Campground
(35.9875°N, 92.7606°W)
Time: 06:07:04
(UTC-06:00)

CZ-2C R/B - Visible Passes

Search period start: 23 November 2014 00:00
Search period end: 03 December 2014 00:00
Orbit: 669 x 787 km, 98.1° (Epoch: 22 November)

Date Brightness Start Highest point End Pass type
(mag) Time Alt. Az. Time Alt. Az. Time Alt. Az.
23 Nov 4.9 19:35:08 11° NNW 19:35:08 11° NNW 19:35:13 10° NNW visible
24 Nov 4.5 18:47:05 12° N 18:47:05 12° N 18:47:27 10° N visible
26 Nov 4.6 18:50:23 11° N 18:50:23 11° N 18:50:34 10° N visible
28 Nov 4.6 18:53:38 10° N 18:53:38 10° N 18:53:40 10° N visible
